sat.trackr.live / text

‹ back to catalog

STARLINK-11452 [DTC]

NORAD 62511 · 2025-004A

PAYLOAD ACTIVE UNKNOWN

§ Identity

Operator
Country
US
Launch date
2025-01-08
Launch site
AFETR
Launch vehicle
Mass (kg)
RCS (m²)

Purposes: comms

External: N2YO · Heavens-Above · Gunter

§ Orbital elements

Epoch: 2026-09-21T11:49:43.014144Z

Period
91.67 min
Inclination
42.9995°
Eccentricity
0.0003737
Mean motion
15.70892134 rev/d
Perigee alt
353.8 km
Apogee alt
358.9 km
Semi-major
6,734.5 km
B*
1.0523e-3
RAAN
330.4626°
Arg perigee
258.1298°
Mean anomaly
101.9151°
Rev number
9,892

§ Raw data

STARLINK-11452 [DTC]1 62511U 25004A   26264.49285896  .00137161  00000+0  10523-2 0  99982 62511  42.9995 330.4626 0003737 258.1298 101.9151 15.70892134 98920

JSON: /api/v1/satellites/62511 · /tle

For live sub-satellite position, see the globe view (requires WebGL).

§ Visibility from observer

Set your observer location to see the next 7 days of passes ≥ 10°. The values pass through the URL so the page stays shareable.

No JS? Fill the form by hand. The geolocation button needs JavaScript.